DW7854 Weather Reports


time (UTC)temp
F
wind
direction
speed
knots
gust
knots
rain 1hr
in
rain 24hr
in
rain mn
in
humidity
%
barometer
mb
20260507004433 54 36 0.9 4.3 0.00 0.06 0.06 92 1013.7
20260507003533 54 357 0.9 1.7 0.00 0.06 0.06 93 1013.9
20260507003103 53 28 0.0 3.5 0.00 0.06 0.06 93 1014.3
20260507002633 54 149 1.7 3.5 0.00 0.06 0.06 93 1014.0
20260507001733 54 319 1.7 4.3 0.00 0.06 0.06 92 1014.6
20260507001504 53 216 1.7 4.3 0.00 0.06 0.06 92 1014.6
20260507000833 54 353 1.7 5.2 0.00 0.06 0.06 92 1013.7
20260507000009 53 340 1.7 5.2 0.00 0.06 0.06 92 1013.5
20260506235933 54 1 1.7 4.3 0.00 0.06 0.06 92 1013.2
20260506235033 54 19 1.7 5.2 0.00 0.06 0.06 92 1012.9
20260506234603 53 41 1.7 4.3 0.00 0.06 0.06 92 1013.0
20260506234133 54 18 1.7 3.5 0.00 0.06 0.06 92 1012.7
20260506233233 54 25 1.7 5.2 0.00 0.06 0.06 92 1013.4
20260506233007 53 334 1.7 5.2 0.00 0.06 0.06 92 1013.9
20260506232333 54 29 1.7 5.2 0.00 0.06 0.06 92 1013.4
20260506231504 53 10 0.9 3.5 0.01 0.06 0.06 92 1013.7
20260506231433 54 9 1.7 3.5 0.01 0.06 0.06 92 1013.4
20260506230108 53 341 3.5 7.0 0.02 0.06 0.06 92 1013.7
20260506225633 54 15 2.6 6.1 0.02 0.06 0.06 92 1012.9
20260506224503 53 78 0.9 7.0 0.02 0.06 0.06 91 1014.2
20260506223833 54 36 1.7 7.0 0.02 0.06 0.06 92 1013.3
20260506223106 53 92 1.7 6.1 0.02 0.06 0.06 91 1013.2
20260506222933 54 39 0.9 6.1 0.02 0.06 0.06 91 1013.0
20260506222033 54 102 0.0 0.9 0.01 0.05 0.05 91 1013.7
20260506221612 53 321 0.0 1.7 0.01 0.05 0.05 91 1014.0
20260506221133 54 38 0.9 2.6 0.00 0.04 0.04 90 1013.8
20260506220233 54 34 0.0 2.6 0.00 0.04 0.04 90 1013.6
20260506220004 53 63 0.0 5.2 0.00 0.04 0.04 90 1013.9
20260506215333 54 2 2.6 7.0 0.00 0.04 0.04 90 1013.1
20260506214509 53 46 2.6 5.2 0.00 0.04 0.04 89 1013.2
20260506214433 54 8 1.7 3.5 0.00 0.04 0.04 90 1013.0
20260506213533 54 20 2.6 6.1 0.00 0.04 0.04 89 1013.0
20260506213003 53 100 1.7 7.8 0.00 0.04 0.04 89 1013.3
20260506212633 54 22 3.5 7.8 0.00 0.04 0.04 89 1012.7
20260506211733 54 19 3.5 7.0 0.00 0.04 0.04 89 1012.3
20260506211604 54 360 3.5 7.8 0.00 0.04 0.04 89 1012.6
20260506210833 54 38 3.5 9.6 0.00 0.04 0.04 89 1012.2
20260506210006 54 61 2.6 6.1 0.00 0.04 0.04 89 1012.4
20260506205933 54 52 3.5 7.8 0.00 0.04 0.04 89 1012.2
20260506205033 54 32 3.5 8.7 0.00 0.04 0.04 88 1012.6
20260506204604 54 39 3.5 8.7 0.00 0.04 0.04 88 1012.8
20260506204133 55 8 2.6 9.6 0.00 0.04 0.04 88 1012.6
20260506203233 55 60 1.7 6.1 0.00 0.04 0.04 88 1012.8
20260506203003 54 196 2.6 6.1 0.00 0.04 0.04 88 1012.9
20260506202333 55 44 2.6 7.0 0.00 0.04 0.04 88 1012.3
20260506201511 54 148 3.5 8.7 0.00 0.04 0.04 88 1012.8
20260506201433 55 63 2.6 8.7 0.00 0.04 0.04 88 1012.7
20260506200533 55 38 2.6 8.7 0.00 0.04 0.04 88 1012.5
20260506200005 54 12 1.7 8.7 0.00 0.04 0.04 89 1012.6
20260506195633 55 24 2.6 9.6 0.00 0.04 0.04 89 1012.3
20260506194733 55 34 3.5 10.4 0.00 0.04 0.04 89 1011.9
20260506194604 54 28 3.5 10.4 0.00 0.04 0.04 89 1012.0
20260506193833 55 34 3.5 10.4 0.00 0.04 0.04 88 1012.3
20260506193004 55 317 3.5 13.0 0.00 0.04 0.04 88 1012.4
20260506192933 55 44 4.3 12.2 0.00 0.04 0.04 88 1012.3
20260506191603 55 32 5.2 11.3 0.00 0.04 0.04 88 1011.8
20260506191133 55 51 4.3 8.7 0.00 0.04 0.04 89 1012.2
20260506190233 55 65 5.2 13.9 0.01 0.04 0.04 91 1012.0
20260506190008 55 360 7.0 13.9 0.01 0.04 0.04 90 1011.9
20260506185333 55 89 5.2 13.9 0.02 0.04 0.04 91 1011.5
20260506184503 54 155 3.5 12.2 0.02 0.04 0.04 92 1011.7
20260506184433 54 70 2.6 12.2 0.02 0.04 0.04 92 1011.7
20260506183106 54 116 2.6 7.0 0.03 0.04 0.04 92 1014.0
20260506182633 54 48 2.6 7.0 0.03 0.04 0.04 93 1013.5
20260506181733 54 43 1.7 7.0 0.03 0.04 0.04 93 1013.5
20260506181508 53 130 1.7 7.0 0.03 0.04 0.04 93 1013.7
20260506180833 54 103 1.7 6.1 0.03 0.04 0.04 92 1014.0
20260506180104 53 225 0.9 6.1 0.02 0.03 0.03 91 1015.3
20260506175933 53 347 3.5 6.1 0.02 0.03 0.03 91 1015.1
20260506175033 54 354 2.6 7.0 0.01 0.02 0.02 90 1014.9
20260506174604 53 10 0.9 7.0 0.01 0.02 0.02 89 1014.8
20260506174133 54 70 1.7 8.7 0.01 0.02 0.02 89 1013.9
20260506173233 54 85 3.5 8.7 0.00 0.01 0.01 89 1014.0
20260506173113 54 120 3.5 8.7 0.00 0.01 0.01 89 1014.2
20260506172333 54 36 1.7 5.2 0.00 0.01 0.01 88 1015.2
20260506171505 54 255 0.9 7.8 0.00 0.01 0.01 89 1015.7
20260506171433 54 337 3.5 7.0 0.00 0.01 0.01 89 1015.5
20260506170533 54 15 3.5 7.8 0.00 0.01 0.01 89 1013.2
20260506170103 54 360 2.6 7.8 0.00 0.01 0.01 89 1013.3
20260506165633 54 21 3.5 8.7 0.00 0.01 0.01 89 1013.5
20260506164507 54 42 3.5 7.8 0.00 0.01 0.01 89 1014.6
20260506163833 55 92 1.7 4.3 0.00 0.01 0.01 90 1014.4
20260506163003 55 136 0.9 10.4 0.00 0.01 0.01 90 1014.4
20260506162933 55 33 4.3 10.4 0.00 0.01 0.01 90 1014.2
20260506162033 55 29 3.5 8.7 0.00 0.01 0.01 90 1013.3
20260506161604 55 355 2.6 9.6 0.00 0.01 0.01 91 1013.9
20260506161133 55 25 3.5 9.6 0.00 0.01 0.01 91 1013.5
20260506160233 55 48 1.7 7.0 0.00 0.01 0.01 91 1013.2
20260506160004 55 28 1.7 7.0 0.00 0.01 0.01 91 1013.3
20260506155333 55 39 2.6 7.0 0.00 0.01 0.01 91 1013.3
20260506154504 55 12 2.6 4.3 0.00 0.01 0.01 91 1013.5
20260506154433 55 47 2.6 5.2 0.00 0.01 0.01 91 1013.3
20260506153533 55 37 3.5 9.6 0.00 0.01 0.01 91 1013.2
20260506153115 55 309 0.9 10.4 0.00 0.01 0.01 91 1013.3
20260506152633 56 39 3.5 11.3 0.00 0.01 0.01 92 1013.0
20260506151733 56 32 2.6 6.1 0.00 0.01 0.01 92 1012.9
20260506151503 56 325 0.9 7.0 0.00 0.01 0.01 92 1012.9
20260506150833 56 62 1.7 7.8 0.00 0.01 0.01 93 1012.8
20260506150004 56 145 1.7 8.7 0.00 0.01 0.01 93 1012.4
20260506145933 57 49 2.6 8.7 0.00 0.01 0.01 92 1012.3
20260506145032 57 33 2.6 7.0 0.01 0.01 0.01 93 1012.3
20260506144613 57 23 3.5 9.6 0.01 0.01 0.01 93 1012.1
20260506143233 58 62 2.6 9.6 0.01 0.01 0.01 93 1011.8
20260506143104 57 73 0.9 9.6 0.01 0.01 0.01 93 1011.9
20260506142334 58 73 2.6 7.0 0.01 0.01 0.01 93 1011.9
20260506141507 58 115 0.9 7.8 0.01 0.01 0.01 93 1012.0
20260506141433 59 52 3.5 7.8 0.01 0.01 0.01 93 1011.8
20260506140533 59 48 3.5 8.7 0.01 0.01 0.01 93 1011.5
20260506140107 58 51 2.6 13.0 0.01 0.01 0.01 93 1011.6
20260506134732 59 24 3.5 8.7 0.00 0.00 0.00 93 1011.5
20260506134509 59 355 1.7 9.6 0.00 0.00 0.00 93 1011.7
20260506133104 60 48 3.5 11.3 0.00 0.00 0.00 92 1011.5
20260506132933 60 27 4.3 11.3 0.00 0.00 0.00 92 1011.5
20260506132033 61 20 2.6 7.8 0.00 0.00 0.00 93 1011.2
20260506131603 61 337 1.7 7.0 0.00 0.00 0.00 93 1011.1
20260506131132 62 29 2.6 6.1 0.00 0.00 0.00 92 1010.7
20260506130005 62 11 1.7 6.1 0.00 0.00 0.00 92 1010.7
20260506125332 63 27 1.7 4.3 0.00 0.00 0.00 92 1010.9
20260506124503 63 44 1.7 5.2 0.00 0.00 0.00 91 1010.6
20260506124433 63 38 2.6 5.2 0.00 0.00 0.00 91 1010.6
20260506123533 64 28 1.7 6.1 0.00 0.00 0.00 91 1010.2
20260506123004 63 335 0.9 4.3 0.00 0.00 0.00 91 1010.2
20260506122633 64 86 0.0 2.6 0.00 0.00 0.00 90 1010.2
20260506121732 64 318 0.0 1.7 0.00 0.00 0.00 89 1010.0
20260506121505 63 318 0.0 2.6 0.00 0.00 0.00 89 1010.0
20260506120016 63 292 0.0 0.9 0.00 0.00 0.00 88 1009.5
20260506115933 64 299 0.9 2.6 0.00 0.00 0.00 88 1009.4
20260506115033 64 306 1.7 4.3 0.00 0.00 0.00 88 1009.2
20260506114614 64 304 1.7 3.5 0.00 0.00 0.00 88 1009.2
20260506114132 64 316 1.7 3.5 0.00 0.00 0.00 88 1009.2
20260506113232 64 333 0.0 2.6 0.00 0.00 0.00 88 1008.7
20260506113023 64 333 0.0 1.7 0.00 0.00 0.00 88 1008.7
20260506112332 64 317 0.9 2.6 0.00 0.00 0.00 88 1008.7
20260506111604 64 306 0.0 3.5 0.00 0.00 0.00 88 1008.7
20260506111432 64 278 0.9 3.5 0.00 0.00 0.00 88 1008.6
20260506110006 64 166 0.0 0.9 0.00 0.00 0.00 88 1008.1
20260506105632 64 166 0.0 0.9 0.00 0.00 0.00 89 1008.2
20260506104732 65 166 0.0 0.9 0.00 0.00 0.00 89 1008.1
20260506104503 64 166 0.0 1.7 0.00 0.00 0.00 88 1008.2
20260506103832 65 176 0.9 1.7 0.00 0.00 0.00 89 1008.0
20260506103104 64 316 0.0 1.7 0.00 0.00 0.00 88 1007.9
20260506102932 65 316 0.0 0.9 0.00 0.00 0.00 88 1007.8
20260506102034 65 316 0.0 1.7 0.00 0.00 0.00 87 1007.6
20260506101606 64 316 0.0 1.7 0.00 0.00 0.00 87 1007.6
20260506101132 65 316 0.0 0.9 0.00 0.00 0.00 87 1007.6
20260506100232 65 274 0.0 0.9 0.00 0.00 0.00 87 1007.5
20260506100104 65 316 0.0 1.7 0.00 0.00 0.00 87 1007.5
20260506095332 65 209 0.0 2.6 0.00 0.00 0.00 87 1007.6
20260506094506 65 316 0.0 0.9 0.00 0.00 0.00 86 1007.4
20260506094432 65 316 0.0 0.9 0.00 0.00 0.00 86 1007.3
20260506093003 65 316 0.0 1.7 0.00 0.00 0.00 86 1007.5
20260506092632 66 316 0.0 1.7 0.00 0.00 0.00 86 1007.4
20260506091732 66 0 0.0 0.0 0.00 0.00 0.00 86 1007.2
20260506091603 65 316 0.0 0.0 0.00 0.00 0.00 86 1007.1
20260506090832 66 316 0.0 0.9 0.00 0.00 0.00 85 1007.0
20260506090005 65 316 0.0 1.7 0.00 0.00 0.00 85 1007.0
20260506085932 66 316 0.0 1.7 0.00 0.00 0.00 85 1007.0
20260506085032 66 358 0.0 1.7 0.00 0.00 0.00 85 1006.8
20260506084609 66 311 0.0 1.7 0.00 0.00 0.00 84 1006.8
20260506084132 66 249 0.0 1.7 0.00 0.00 0.00 84 1006.8
20260506083232 66 248 0.0 2.6 0.00 0.00 0.00 83 1006.6
20260506083103 66 248 0.0 2.6 0.00 0.00 0.00 83 1006.7
20260506082332 66 299 0.9 3.5 0.00 0.00 0.00 83 1006.6
20260506081503 66 263 0.0 3.5 0.00 0.00 0.00 83 1006.6
20260506080532 67 312 2.6 7.0 0.00 0.00 0.00 82 1006.6
20260506080108 67 280 1.7 7.0 0.00 0.00 0.00 82 1006.6
20260506073103 71 306 2.6 10.4 0.00 0.00 0.00 83 1006.1
20260506071607 72 198 0.9 3.5 0.00 0.00 0.00 85 1005.8
20260506071132 73 228 0.9 3.5 0.00 0.00 0.00 86 1005.8
20260506070232 73 228 0.9 2.6 0.00 0.00 0.00 87 1005.5
20260506061732 75 154 0.0 1.7 0.00 0.00 0.00 88 1005.3
20260506061604 74 155 0.0 1.7 0.00 0.00 0.00 88 1005.2
20260506050532 74 177 1.7 3.5 0.00 0.00 0.00 88 1005.1
20260506050108 74 160 0.9 3.5 0.00 0.00 0.00 88 1005.0
20260506044604 74 187 0.0 0.9 0.00 0.00 0.00 87 1005.1
20260506043832 75 188 0.0 1.7 0.00 0.00 0.00 87 1005.1
20260506043005 74 187 0.0 1.7 0.00 0.00 0.00 87 1005.0
20260506042932 74 241 0.0 1.7 0.00 0.00 0.00 87 1005.0
20260506042032 74 190 0.9 3.5 0.00 0.00 0.00 87 1005.3
20260506041508 74 185 0.0 3.5 0.00 0.00 0.00 87 1004.4
20260506041132 75 149 0.0 3.5 0.00 0.00 0.00 87 1004.5
20260506040232 75 184 0.0 1.7 0.00 0.00 0.00 87 1005.1
20260506040002 74 183 0.0 1.7 0.00 0.00 0.00 87 1005.1
20260506035332 75 194 0.0 2.6 0.00 0.00 0.00 87 1005.1
20260506034517 74 183 0.0 1.7 0.00 0.00 0.00 87 1005.2
20260506034432 75 165 0.0 1.7 0.00 0.00 0.00 87 1005.1
20260506033532 75 151 0.0 0.9 0.00 0.00 0.00 86 1004.7
20260506033105 75 151 0.0 0.9 0.00 0.00 0.00 86 1004.3
20260506032632 75 151 0.0 1.7 0.00 0.00 0.00 85 1004.6
20260506031732 75 151 0.0 1.7 0.00 0.00 0.00 85 1004.7
20260506031609 75 151 0.0 1.7 0.00 0.00 0.00 85 1004.7
20260506030832 76 170 0.0 0.9 0.00 0.00 0.00 85 1004.6
20260506030104 75 215 0.0 0.9 0.00 0.00 0.00 85 1004.6
20260506025032 76 212 0.0 1.7 0.00 0.00 0.00 84 1004.6
20260506024510 76 192 0.0 0.9 0.00 0.00 0.00 84 1004.0
20260506024132 76 193 0.0 0.9 0.00 0.00 0.00 84 1003.8
20260506023232 76 193 0.0 1.7 0.00 0.00 0.00 83 1004.0
20260506023102 76 192 0.0 1.7 0.00 0.00 0.00 83 1004.0
20260506022332 76 193 0.0 1.7 0.00 0.00 0.00 83 1004.0
20260506021604 76 192 0.0 3.5 0.00 0.00 0.00 83 1003.9
20260506021432 76 184 1.7 3.5 0.00 0.00 0.00 83 1003.9
20260506020008 76 188 1.7 4.3 0.00 0.00 0.00 84 1003.9
20260506015632 76 179 1.7 5.2 0.00 0.00 0.00 83 1003.9
20260506014732 77 156 0.9 3.5 0.00 0.00 0.00 83 1003.8
20260506014602 76 180 0.9 2.6 0.00 0.00 0.00 83 1003.7
20260506013832 77 157 0.0 1.7 0.00 0.00 0.00 82 1003.7
20260506013111 77 157 0.0 2.6 0.00 0.00 0.00 82 1003.9
20260506012932 78 166 0.9 2.6 0.00 0.00 0.00 82 1004.0
20260506011611 78 229 0.0 0.0 0.00 0.00 0.00 81 1003.7
20260506010232 79 0 0.0 0.0 0.00 0.00 0.00 80 1003.9
20260506010010 79 229 0.0 0.0 0.00 0.00 0.00 79 1003.8
20260506005332 79 235 0.0 1.7 0.00 0.00 0.00 78 1003.8
20260506004504 79 244 0.0 1.7 0.00 0.00 0.00 78 1003.7